Skip Page Navigation
NASA JPL Caltech
NASA Logo - Jet Propulsion Laboratory + View the NASA Portal
+ Center for Near-Earth Object Studies
JPL Home Earth Solar System Stars & Galaxies Technology
JPL Solar System Dynamics
BODIES ORBITS EPHEMERIDES TOOLS PHYSICAL DATA DISCOVERY FAQ SITE MAP
JPL Small-Body Database Browser
Search: [ help ]  
357292 (2002 UF35)
Classification: Main-belt Asteroid          SPK-ID: 2357292
Ephemeris | Orbit Diagram | Orbital Elements | Mission Design | Physical Parameters | Discovery Circumstances ]

[ show orbit diagram ]
Orbital Elements at Epoch 2459000.5 (2020-May-31.0) TDB
Reference: JPL 14 (heliocentric ecliptic J2000)
 Element Value Uncertainty (1-sigma)   Units 
e .1220588008240643 5.3079e-08  
a 2.799438427256092 2.5443e-08 au
q 2.457742329844409 1.6186e-07 au
i 9.935192904330764 5.0926e-06 deg
node 131.3833901820896 2.6255e-05 deg
peri 240.0435096871684 3.2869e-05 deg
M 296.128385883553 2.0482e-05 deg
tp 2459304.035993381418
(2021-Mar-30.53599338)
9.8877e-05 TDB
period 1710.82192189617
4.68
2.3323e-05
6.385e-08
d
yr
n .2104251736504511 2.8687e-09 deg/d
Q 3.141134524667775 2.8548e-08 au
  Orbit Determination Parameters
   # obs. used (total)      285  
   data-arc span      6563 days (17.97 yr)  
   first obs. used      2002-10-29  
   last obs. used      2020-10-17  
   planetary ephem.      DE431  
   SB-pert. ephem.      SB431-N16  
   condition code      0  
   norm. resid. RMS      .58474  
   source      ORB  
   producer      Otto Matic  
   solution date      2020-Nov-11 16:27:43  

Additional Information
 Earth MOID = 1.47391 au 
 Jupiter MOID = 2.3521 au 
 T_jup = 3.293 
[ hide covariance matrix ]
Orbital Elements at Epoch 2458165.5 (2018-Feb-16.0) TDB
Reference: JPL 14 (heliocentric ecliptic J2000)
 Element Value Uncertainty (1-sigma)   Units 
e .1238616225335996 5.2909e-08  
q 2.44940268218797 1.6127e-07 au
tp 2457597.468619076591
(2016-Jul-27.96861908)
9.1175e-05 TDB
node 131.462065638411 2.6312e-05 deg
peri 240.4652131838852 3.2774e-05 deg
i 9.928499388349776 5.0896e-06 deg
  Orbit Determination Parameters
   # obs. used (total)      285  
   data-arc span      6563 days (17.97 yr)  
   first obs. used      2002-10-29  
   last obs. used      2020-10-17  
   planetary ephem.      DE431  
   SB-pert. ephem.      SB431-N16  
   condition code      0  
   norm. resid. RMS      .58474  
   source      ORB  
   producer      Otto Matic  
   solution date      2020-Nov-11 16:27:43  

Additional Information
 Jupiter MOID = 2.3521 au 
 T_jup = 3.293 
Orbit Covariance (6×6)
  e q tp node peri i
e 2.799345924530526E-15 -8.476641352943501E-15 -1.07072628318175E-12 -2.043784875136163E-15 -2.107131768412224E-13 -3.244288769480368E-15
q -8.476641352943501E-15 2.600717928750214E-14 3.303825744244473E-12 4.851209077495798E-15 6.746527394910772E-13 1.087890704703779E-14
tp -1.07072628318175E-12 3.303825744244473E-12 8.312960018604181E-9 -3.710608703884523E-12 1.801296673839359E-9 2.47264377439075E-12
node -2.043784875136163E-15 4.851209077495798E-15 -3.710608703884523E-12 6.923040503298531E-10 -6.821102232685402E-10 1.51486564364159E-11
peri -2.107131768412224E-13 6.746527394910772E-13 1.801296673839359E-9 -6.821102232685402E-10 1.074131195053421E-9 -1.430679614824422E-11
i -3.244288769480368E-15 1.087890704703779E-14 2.47264377439075E-12 1.51486564364159E-11 -1.430679614824422E-11 2.590358948602527E-11

Ephemeris | Orbit Diagram | Orbital Elements | Mission Design | Physical Parameters | Discovery Circumstances ]

Physical Parameter Table
Parameter Symbol Value Units Sigma Reference Notes
absolute magnitude H 16.0   n/a MPO476671  

357292 (2002 UF35)          Discovered 2002-Oct-31 by LINEAR at Socorro
Reference: 20130327/Numbers.arcLast Updated: 2013-03-29

Alternate Designations
 2002 UF35 = 2013 AE115 
Ephemeris | Orbit Diagram | Orbital Elements | Mission Design | Physical Parameters | Discovery Circumstances ]
ABOUT SSD CREDITS/AWARDS PRIVACY/COPYRIGHT GLOSSARY LINKS
FirstGov 2021-Jan-23 12:15 UT
(server date/time)  
NASA Home Page
Site Manager:   Ryan S. Park
Webmaster  Alan B. Chamberlin